Weather History for Cut Bank, MT

Change the Weather History Date:

Friday, January 31, 2014

  Actual Average Record
Temperature  
Mean Temperature 2 °F 23 °F  
Max Temperature 18 °F 34 °F 67 °F (1962)
Min Temperature -14 °F 12 °F -46 °F (1918)
Degree Days  
Heating Degree Days 63 42  
Month to date heating degree days 1179 1327  
Since 1 July heating degree days 4708 4918  
Cooling Degree Days 0 0  
Month to date cooling degree days 0 0  
Year to date cooling degree days 0 0  
Moisture  
Dew Point 0 °F    
Average Humidity 73    
Maximum Humidity 92    
Minimum Humidity 54    
Precipitation  
Precipitation T in 0.01 in 0.50 in (1989)
Month to date precipitation 0.45 0.20  
Year to date precipitation 0.45 0.20  
Snow  
Snow 0.00 in - - ()
Snow Depth 4.00 in    
Sea Level Pressure  
Sea Level Pressure 29.99 in    
Wind  
Wind Speed 12 mph (NNW)    
Max Wind Speed 28 mph    
Max Gust Speed 32 mph    
Visibility 8 miles    
Events Snow    
T = Trace of Precipitation, MM = Missing Value Source: NWS Daily Summary

Daily Weather History Graph

Daily Weather History Graph

Search for Another Location

Airport:

Trip Planner

Search our weather history database for the weather conditions in past years. The results will help you decide how hot, cold, wet, or windy it might be!

Date:

Astronomy

Jan. 31, 2014 Rise Set
Actual Time 8:00 AM MST 5:26 PM MST
Civil Twilight 7:26 AM MST 6:00 PM MST
Nautical Twilight 6:48 AM MST 6:38 PM MST
Astronomical Twilight 6:11 AM MST 7:14 PM MST
Moon 8:03 AM MST (1/31) 7:06 PM MST (1/31)
Length of Visible Light 10h 34m
Length of Day
9h 26m
New Moon, 1% of the Moon is Illuminated
Jan 31
New Moon
Feb 6
First Quarter
Feb 14
Full
Feb 22
Last Quarter
Mar 1
New

Hourly Weather History & Observations

Time (MST) Temp. Windchill Dew Point Humidity Pressure Visibility Wind Dir Wind Speed Gust Speed Precip Events Conditions
12:56 AM -9.0 °F -18.2 °F -11.0 °F 91% 29.99 in 10.0 mi NNE 3.5 mph - N/A   Clear
1:24 AM -11.0 °F -22.8 °F -15.0 °F 83% 29.72 in 1.8 mi North 4.6 mph - N/A   Clear
1:36 AM -9.9 °F -19.2 °F -13.0 °F 86% 29.71 in 0.8 mi NNW 3.5 mph - N/A   Clear
1:49 AM -9.0 °F -20.4 °F -11.0 °F 91% 29.70 in 2.0 mi West 4.6 mph - N/A   Clear
1:56 AM -9.0 °F -20.4 °F -11.9 °F 87% 29.96 in 10.0 mi West 4.6 mph - N/A   Clear
2:56 AM -9.0 °F - -11.9 °F 87% 29.94 in 10.0 mi Calm Calm - N/A   Clear
3:56 AM -11.9 °F -25.7 °F -17.0 °F 78% 29.94 in 10.0 mi North 5.8 mph - N/A   Clear
4:56 AM -9.9 °F -24.9 °F -15.0 °F 78% 29.93 in 10.0 mi WNW 6.9 mph - N/A   Clear
5:56 AM -11.9 °F -32.0 °F -17.0 °F 78% 29.92 in 10.0 mi NNW 11.5 mph - N/A   Clear
6:56 AM -0.0 °F -16.3 °F -5.1 °F 79% 29.92 in 10.0 mi NW 10.4 mph - N/A   Clear
7:56 AM 3.0 °F -12.5 °F -2.9 °F 76% 29.94 in 10.0 mi WNW 10.4 mph - N/A   Clear
8:56 AM -2.9 °F -16.5 °F -8.0 °F 79% 29.98 in 10.0 mi NNE 6.9 mph - N/A   Clear
9:56 AM 3.9 °F -8.2 °F -0.9 °F 80% 29.99 in 10.0 mi NNW 6.9 mph - N/A   Clear
10:56 AM 12.0 °F 0.5 °F 3.9 °F 70% 29.99 in 10.0 mi NW 8.1 mph - N/A   Scattered Clouds
11:56 AM 17.1 °F 0.1 °F 3.9 °F 56% 29.99 in 10.0 mi North 20.7 mph - N/A   Overcast
12:56 PM 18.0 °F 1.7 °F 6.1 °F 60% 30.01 in 10.0 mi North 19.6 mph - N/A   Mostly Cloudy
1:56 PM 16.0 °F -2.5 °F 7.0 °F 68% 30.04 in 10.0 mi North 24.2 mph 28.8 mph N/A   Overcast
2:56 PM 15.1 °F -2.0 °F 8.1 °F 74% 30.06 in 10.0 mi North 19.6 mph - N/A   Overcast
3:56 PM 15.1 °F -2.9 °F 8.1 °F 74% 30.09 in 10.0 mi North 21.9 mph - N/A   Overcast
4:20 PM 14.0 °F -2.5 °F 8.1 °F 77% 29.87 in 4.0 mi NNW 17.3 mph - N/A   Haze
4:32 PM 14.0 °F 0.5 °F 9.0 °F 80% 29.87 in 1.8 mi NNW 11.5 mph - 0.00 in Snow Light Snow
4:40 PM 14.0 °F -0.2 °F 9.0 °F 80% 29.87 in 3.0 mi NNW 12.7 mph - 0.00 in Snow Light Snow
4:56 PM 14.0 °F 0.5 °F 8.1 °F 77% 30.12 in 9.0 mi NNW 11.5 mph - 0.00 in   Overcast
5:56 PM 9.0 °F -4.2 °F 5.0 °F 84% 30.17 in 9.0 mi NW 9.2 mph - 0.00 in   Overcast
6:56 PM 7.0 °F -5.7 °F 3.0 °F 84% 30.16 in 8.0 mi West 8.1 mph - 0.00 in Snow Light Snow
7:56 PM 12.0 °F -1.3 °F 7.0 °F 80% 30.15 in 8.0 mi WNW 10.4 mph - 0.00 in   Overcast
8:56 PM 12.9 °F -2.2 °F 8.1 °F 81% 30.18 in 10.0 mi NNW 13.8 mph - N/A   Overcast
9:11 PM 12.9 °F -0.9 °F 9.0 °F 84% 29.96 in 2.5 mi NW 11.5 mph - 0.00 in Snow Light Snow
9:23 PM 12.9 °F -1.6 °F 9.0 °F 84% 29.97 in 4.0 mi NNW 12.7 mph - 0.00 in Snow Light Snow
9:56 PM 12.0 °F -6.0 °F 5.0 °F 73% 30.19 in 10.0 mi NNW 19.6 mph 26.5 mph 0.00 in   Overcast
10:56 PM 9.0 °F -5.9 °F 3.0 °F 77% 30.20 in 10.0 mi NNW 11.5 mph - N/A   Overcast
11:56 PM 8.1 °F -7.0 °F 3.9 °F 83% 30.20 in 10.0 mi NW 11.5 mph - N/A   Overcast